Vertical_Velocity
0 0 -0 0 1 1 1 0 1 1 1 1 2 2 1 -0 -1 -1 0 0 0 1 1 1 0 -0 -0 -1 -0 -0 0 0 0 -0 -0 -1 -1 -1 -0 -0 -0 -0 0 0 0 0 0 0 0 -0 -1 -1 -0 -0 -0 -0 0 1 0 0 0 0 1 0 0 0 0 0 0 0 0 0 0 0 0 0 0 0 1 1 1 1 1 1 0 0 0 0 0 0 0 0 0 0 -0 -0 -0 -0 -0 -0 -0 -0 -0
0 -0 0 1 1 1 0 0 1 1 1 1 2 2 2 1 -0 -1 -0 -0 0 0 1 1 0 0 -0 -0 -0 0 0 1 1 0 -0 -0 -0 -0 -0 -0 -0 0 0 0 0 0 0 0 0 0 -0 -1 -1 -0 -0 -0 0 1 1 0 0 0 1 0 0 0 0 0 0 0 0 0 0 0 0 0 0 0 0 0 1 1 1 1 1 0 0 0 1 0 0 0 0 0 -0 -0 -0 -0 -0 -0 -0 -0 -0
0 -0 0 1 1 1 0 0 1 1 1 1 1 2 2 1 0 -0 -0 -0 -0 -0 0 0 0 0 -0 0 0 0 0 1 1 1 0 0 -0 -0 -0 0 0 0 0 0 0 -0 0 0 0 0 0 -0 -1 -1 -0 -0 -0 0 1 1 0 0 1 0 0 0 0 0 0 0 0 0 0 0 0 0 0 0 0 0 0 1 1 1 1 1 1 1 1 1 1 0 0 0 -0 -0 -0 -1 -1 -1 -1 -1 -1
0 -0 0 1 1 1 0 0 1 1 1 1 1 2 2 1 1 0 -0 -0 -0 -0 -0 -0 0 0 0 0 0 0 0 0 1 1 1 0 -0 -0 -0 0 0 0 0 0 0 -0 -0 -0 0 0 0 0 -0 -1 -1 -0 -0 0 1 1 1 0 0 0 0 0 0 0 0 0 1 1 0 0 1 1 1 0 0 0 0 0 0 1 1 1 1 1 1 1 1 0 0 0 0 0 -0 -1 -1 -1 -1 -1 -1
0 0 0 1 1 1 1 1 0 1 1 1 1 2 2 1 1 1 -0 0 0 0 -0 -0 -0 -0 -0 -0 -0 -0 -0 0 0 1 1 0 0 -0 -0 0 0 0 0 0 0 0 0 -0 -0 -0 0 0 -0 -0 -1 -0 -0 -0 0 0 0 0 0 0 0 0 0 0 0 0 0 0 0 0 1 1 1 0 0 0 -0 0 0 0 0 0 1 1 1 1 1 1 1 1 0 0 -0 -0 -1 -1 -1 -1 -1
1 1 0 0 1 1 1 1 1 0 0 1 1 2 2 2 1 1 -0 0 1 0 0 -0 -0 -0 -0 -0 -0 -0 -0 -0 0 0 1 0 0 -0 -0 0 0 -0 -0 -0 0 0 0 0 -0 -0 -0 -0 -0 -0 -1 -1 -0 -0 0 0 0 0 0 -0 -0 0 0 0 0 0 0 0 0 0 1 0 0 0 0 0 0 0 0 0 0 0 0 1 1 1 1 1 1 1 1 0 0 -0 -0 -0 -1 -1 -1
2 1 1 0 1 1 1 1 1 0 0 1 1 2 2 2 2 1 0 0 1 1 1 0 -0 -0 -0 -1 -1 -0 -0 -0 -0 0 1 0 0 0 0 0 0 -0 -0 -0 -0 0 0 0 0 0 0 0 0 -0 -0 -0 -1 -0 -0 -0 0 0 -0 -0 -0 0 0 0 0 -0 -0 -0 -0 0 0 0 0 0 0 0 0 0 0 0 0 0 0 1 1 1 1 1 1 1 1 0 0 0 0 -0 -0 -1 -1
1 1 1 1 1 1 1 1 1 0 0 1 1 2 2 2 2 2 1 0 0 1 1 0 0 -0 -0 -1 -1 -1 -0 -0 -0 0 1 1 0 0 0 0 0 0 -0 -0 -0 -0 -0 0 0 0 0 0 0 0 0 -0 -0 -1 -0 -0 0 0 -0 -0 -0 -0 0 0 0 -0 -0 -0 -0 -0 0 0 0 0 0 0 0 0 0 0 0 1 1 1 1 1 1 1 1 1 1 0 0 0 0 0 -0 -0 -1
1 1 1 1 1 1 1 1 1 0 0 1 1 2 2 2 2 2 2 0 0 0 1 0 0 -0 -0 -0 -1 -1 -1 -1 -0 -0 0 1 1 1 0 1 1 0 0 -0 -0 -0 -0 -0 -0 -0 -0 0 0 0 0 0 -0 -0 -1 -0 -0 0 0 0 0 0 0 0 0 0 0 0 0 0 -0 0 0 0 0 0 0 0 0 0 0 0 1 1 1 1 1 1 1 1 1 1 1 1 1 0 0 -0 -1
2 2 2 1 1 1 0 0 0 0 0 0 1 1 2 2 2 2 2 1 0 -0 0 0 0 -0 -0 -1 -1 -1 -1 -1 -1 -0 0 1 1 1 1 1 1 1 1 0 0 -0 -0 -1 -1 -1 -1 -0 -0 -0 0 0 0 -0 -0 -0 -0 0 0 -0 -0 -0 -0 0 1 1 1 1 0 0 0 0 0 0 0 0 1 0 0 0 0 0 0 1 1 1 1 1 1 1 1 1 1 1 1 1 0 0 -0
1 1 1 1 0 0 0 0 0 -0 -0 -0 0 1 1 2 2 2 2 2 1 -0 -0 -0 -0 -0 -0 -1 -1 -1 -1 -1 -1 -1 -0 0 1 1 1 1 1 1 1 1 1 0 0 -0 -0 -1 -1 -1 -1 -1 -0 -0 0 0 -0 -0 -0 -0 -0 -0 -0 -0 -0 0 0 1 1 1 1 0 0 0 0 0 0 0 0 1 0 0 0 0 0 0 1 1 1 1 1 1 1 1 1 1 1 1 1 0 0
0 0 1 0 -0 -0 -0 0 -0 -0 -1 -1 -0 -0 0 2 3 3 1 2 1 0 -0 -0 -0 -0 -0 -1 -1 -1 -1 -1 -1 -1 -1 -0 0 0 0 1 1 1 1 1 1 1 1 0 0 -0 -0 -1 -1 -1 -1 -0 -0 -0 -0 -0 -0 -0 -0 -0 -0 -0 -0 -0 0 0 0 1 1 1 1 1 0 0 0 0 0 0 0 0 0 0 0 0 0 1 1 1 1 1 1 1 1 1 1 1 1 1 0
-1 -0 -0 -0 -0 -0 -0 -0 -0 -0 -1 -1 -1 -1 -1 3 4 3 0 1 2 1 1 0 -0 -0 -0 -1 -1 -1 -1 -1 -1 -1 -1 -1 -0 0 0 0 0 1 1 1 1 1 1 1 1 0 0 -0 -0 -0 -0 -0 -0 -0 -0 -0 -0 -0 -0 -0 -0 -0 -1 -0 -0 -0 0 0 0 0 0 0 0 0 0 0 0 0 0 0 0 0 0 0 1 1 1 1 1 1 1 1 1 1 1 1 1 1 0
1 -1 -0 -0 -0 -0 -0 -0 -0 -0 -0 -1 -1 -1 -1 3 3 2 -0 2 2 2 1 1 -0 -1 -1 -1 -1 -1 -1 -1 -1 -1 -1 -1 -1 -0 0 0 0 0 0 1 1 1 1 1 1 1 0 0 0 -0 -0 -0 -0 -0 0 0 -0 -0 -0 -0 -0 -1 -1 -1 -1 -0 -0 -0 -0 0 0 0 0 0 0 0 0 0 0 0 0 0 0 0 0 1 1 1 1 0 0 0 1 1 1 1 1 1 1
1 -0 -0 -0 -0 -0 -0 -0 -0 -0 -0 -0 -1 -1 -1 1 1 1 -1 1 1 2 2 1 -0 -1 -1 -1 -1 -1 -1 -1 -1 -1 -1 -1 -1 -1 -0 -0 -0 -0 -0 0 0 1 1 1 1 1 1 0 0 0 0 0 0 0 0 0 0 0 0 0 -0 -0 -1 -0 -0 -1 -0 -0 -0 -0 0 0 0 0 0 0 0 0 0 0 0 0 0 0 0 0 0 0 0 0 0 0 0 0 0 1 0 0 0
0 0 -0 -0 -0 -0 -0 -0 -0 -0 -0 -0 -0 -0 -0 -0 -0 -0 -1 -0 1 1 2 2 0 -1 -1 -1 -1 -1 -1 -1 -1 -1 -1 -2 -2 -1 -1 -1 -0 -0 -0 -0 0 0 1 1 1 1 1 0 0 0 0 0 0 0 0 0 0 0 0 0 0 -0 -0 -0 -0 -0 -0 -0 -0 -0 -0 0 0 0 0 0 0 0 0 0 -0 0 0 0 0 0 0 0 0 0 0 0 0 0 0 0 0 0 0
-0 -0 0 0 0 -0 -0 -1 -1 -0 -0 -0 -0 -0 -0 -0 -0 -0 -1 -1 -0 0 1 2 1 0 -1 -1 -1 -1 -1 -1 -1 -1 -2 -2 -2 -2 -2 -1 -1 -0 -0 -0 -0 -0 0 1 1 1 1 0 0 -0 -0 -0 0 0 0 0 0 0 0 0 0 0 0 0 0 -0 -0 -0 -0 -0 -0 0 0 0 0 0 0 0 0 -0 -0 -0 -0 -0 -0 0 0 0 0 0 0 0 0 0 0 0 0 0 0
-1 -0 0 0 0 0 -0 -1 -1 -1 -1 -1 -0 -0 0 0 -0 -0 -1 -1 -1 -1 -0 1 1 1 -0 -1 -1 -2 -2 -2 -2 -2 -2 -2 -2 -2 -2 -2 -1 -1 -0 -0 -0 -0 0 0 0 1 1 1 0 0 -0 -0 0 0 0 0 0 0 0 0 1 1 1 1 0 0 0 -0 0 0 0 0 0 0 0 0 0 0 0 0 0 0 -0 0 0 -0 0 0 0 0 0 0 0 0 0 0 0 0 -0
-1 -0 -0 0 1 1 0 -0 -0 -0 -0 -0 0 0 0 0 -0 -0 -1 -1 -1 -2 -1 -0 0 1 0 -0 -1 -1 -2 -2 -2 -2 -2 -2 -2 -2 -2 -2 -2 -1 -1 -0 -0 -0 -0 0 0 0 1 1 0 0 0 -0 -0 0 0 0 0 0 0 0 0 1 1 1 1 0 0 0 0 0 0 0 0 0 1 0 0 0 0 0 0 0 0 0 0 0 0 0 0 0 0 0 0 0 -0 -0 -0 -0 -0
-0 -0 -0 0 1 1 1 0 -0 -0 0 0 0 0 0 -0 -0 -0 -1 -1 -1 -1 -1 -1 -0 0 0 0 -0 -1 -1 -2 -2 -2 -2 -2 -2 -2 -1 -2 -2 -2 -2 -1 -0 -0 -0 -0 -0 0 0 0 0 0 0 0 -0 -0 0 0 0 0 0 0 0 1 1 1 1 1 1 0 0 0 0 0 1 1 1 1 0 0 0 0 0 0 0 0 0 0 -0 0 -0 -0 -0 -0 -0 -0 -0 -0 -0 -0 -0
-0 -0 -0 -0 0 1 1 1 0 0 0 0 1 1 -0 -0 -0 -0 -1 -1 -1 -1 -1 -1 -1 -0 0 1 0 -0 -1 -1 -2 -2 -2 -2 -2 -2 -2 -1 -2 -2 -2 -1 -1 -0 -0 -0 -0 -0 -0 0 0 1 1 0 0 -0 -0 0 0 0 0 0 0 0 1 1 1 1 1 1 0 0 0 0 1 1 1 1 1 0 0 0 0 0 0 0 0 0 0 0 -0 -0 -0 -0 -0 -0 -0 -0 -0 -0 -0
-0 -0 -0 -0 0 1 1 0 0 0 0 0 1 1 -0 -0 -0 -0 -0 -0 -0 -1 -1 -1 -1 -0 0 1 1 0 -0 -0 -1 -2 -2 -2 -2 -2 -2 -1 -1 -1 -2 -2 -2 -1 -1 -0 -0 -0 -0 -0 0 0 1 1 0 0 -0 -0 -0 0 0 0 0 0 0 1 1 1 1 1 0 0 0 0 1 1 1 1 1 1 0 0 0 0 0 0 0 0 0 0 0 -0 -0 -0 -0 -0 -0 -0 -0 -0 -0
-0 -0 -0 -0 0 1 1 -0 -0 0 -1 -0 1 1 -0 0 0 0 0 0 -0 -0 -0 -0 -0 -0 0 1 1 1 0 0 -0 -1 -2 -2 -2 -2 -2 -2 -1 -1 -2 -2 -2 -2 -1 -1 -0 -0 -0 -0 0 0 1 1 0 0 0 -0 -0 -0 0 0 0 0 0 1 1 1 1 1 1 0 1 1 1 1 1 1 1 1 1 0 0 0 0 0 0 0 0 0 0 -0 -0 -0 -0 -0 -0 -0 -0 -0 -0
0 0 -0 0 0 0 -0 -0 -0 -0 -1 -0 0 0 -0 -0 0 0 0 0 0 0 -0 -0 -1 -0 1 1 1 1 1 1 0 -0 -1 -1 -2 -2 -2 -2 -1 -1 -1 -1 -2 -2 -1 -1 -0 -0 0 0 0 0 0 0 0 0 0 0 -0 -0 -0 -0 0 0 0 1 1 1 1 1 1 1 1 1 1 1 1 1 1 1 1 1 0 0 0 0 0 0 0 0 0 0 -0 -0 -0 -0 -0 -0 -0 -0 -0
1 1 0 0 0 -0 -1 -0 -0 -1 -1 -1 -0 0 -0 -0 0 0 0 0 0 0 0 -0 -0 -0 1 1 2 2 1 1 1 0 0 -0 -1 -1 -2 -2 -1 -1 -1 -1 -1 -1 -1 -1 -1 -0 0 0 0 0 1 0 0 0 0 0 0 0 -0 -0 -0 -0 0 0 0 1 1 1 1 1 1 1 1 1 1 1 1 1 1 1 0 0 0 0 0 0 0 0 0 0 0 0 0 -0 -0 0 0 0 0
1 1 0 1 0 0 -0 -0 -0 -1 -1 -1 -0 0 0 -1 -0 0 0 0 0 0 0 -0 -0 -0 1 1 1 2 2 1 1 1 1 1 0 -0 -1 -1 -1 -1 -1 -1 -1 -1 -1 -1 -1 -0 -0 0 0 1 1 1 0 0 1 1 1 0 0 -0 -0 -0 -0 -0 0 0 0 1 1 1 1 1 1 1 1 1 1 1 1 0 0 0 0 0 0 0 0 0 0 0 0 0 0 0 0 0 0 0 0
2 1 1 1 1 1 0 0 -0 -0 -1 -0 0 1 0 -1 -1 -0 0 -0 -0 0 -0 -0 -0 -0 -0 0 1 1 1 2 2 1 1 1 1 0 -0 -1 -1 -1 -1 -1 -1 -1 -1 -1 -0 -0 -0 -0 0 1 1 1 1 1 1 1 1 1 0 0 -0 -0 -0 -0 -0 -0 0 0 1 1 1 1 1 1 1 1 0 0 0 0 0 0 0 -0 0 0 0 0 0 0 0 0 0 0 0 0 0 0 1
1 1 1 1 1 1 0 0 0 1 0 0 1 1 0 -0 -0 -0 0 -0 -0 -0 -0 -0 -0 -1 -1 -0 0 0 1 1 1 1 1 2 1 1 1 0 -0 -1 -1 -1 -1 -1 -0 -0 -0 -0 -0 -0 0 1 1 1 1 1 1 1 1 1 1 1 0 0 -0 -0 -0 -0 -0 -0 0 0 0 1 1 1 0 1 0 0 0 0 0 0 -0 -0 -0 0 0 0 0 0 0 0 0 0 0 0 0 0 1
1 1 1 1 1 1 0 0 1 2 1 1 1 1 0 1 0 -0 0 -0 -0 -0 -0 -1 -1 -1 -1 -1 -0 0 -0 0 1 1 1 2 2 1 1 1 0 -1 -1 -1 -1 -1 -1 -0 -0 -0 0 0 0 0 1 1 1 1 1 1 1 1 1 1 1 0 0 -0 -0 -0 -1 -0 -0 -0 0 0 0 0 0 0 0 0 -0 0 -0 -0 -0 -0 -0 -0 0 0 0 0 0 0 0 0 0 0 0 0 1
0 0 1 1 1 0 0 0 1 1 1 2 1 1 1 1 1 1 -0 -1 -1 -0 -1 -1 -1 -1 -1 -1 -0 -0 -1 -0 1 1 1 2 1 1 1 1 0 0 0 -0 -1 -1 -0 -0 0 0 0 0 0 1 1 1 1 2 2 1 1 1 1 1 1 0 0 -0 -0 -0 -1 -1 -0 -0 -0 -0 0 0 0 0 0 0 -0 -0 -0 -0 -0 -0 -0 -0 0 0 0 0 0 0 0 0 0 0 0 0 0
-0 0 1 1 1 0 -0 -0 0 1 1 2 2 1 1 1 1 1 -0 -1 -1 -1 -0 -1 -1 -1 -1 -1 -1 -1 -2 -1 1 1 1 1 1 1 1 1 1 1 1 0 0 -0 -0 -0 0 0 1 1 1 1 1 1 1 1 1 1 1 1 1 1 1 0 0 -0 -0 -0 -0 -1 -1 -0 -0 -0 0 0 0 0 0 0 -0 -0 -1 -1 -0 -0 0 0 0 0 0 0 0 0 0 0 0 0 0 0 0
0 -0 0 0 0 -0 -0 -0 -0 0 1 2 2 1 0 1 1 1 0 -0 -1 -1 -0 -0 -0 -0 -0 -0 -0 -1 -1 -0 -0 0 0 1 1 0 0 1 2 1 1 1 1 0 -0 0 0 0 1 1 1 1 1 1 1 1 1 1 1 1 1 1 1 0 0 -0 -0 -0 -0 -0 -0 -0 -0 -0 0 0 0 0 0 0 -0 -0 -1 -0 -0 -0 0 0 0 0 0 0 0 0 0 1 0 0 0 0 0
0 -0 -0 -0 -0 -0 -0 -0 -0 -0 0 1 2 1 2 1 1 0 -0 -0 -1 -1 0 0 0 0 1 0 -0 -0 0 -0 -0 -1 -1 0 0 1 2 4 3 1 1 2 1 1 0 1 0 0 0 1 1 0 1 0 0 -0 -0 -0 0 1 1 1 1 0 0 -0 -0 -0 -0 -0 -0 -0 -0 -0 0 0 0 0 0 0 0 -0 -0 0 1 0 0 0 0 0 0 0 0 0 0 1 1 0 0 0 0
0 -0 -0 -0 -0 -0 -0 -1 -1 -0 0 1 1 1 2 1 -0 -0 -0 -1 -1 -0 0 1 0 0 1 1 0 0 0 -0 -0 -0 -0 -0 0 3 9 7 3 1 2 2 2 1 1 1 0 -0 -0 0 0 0 -0 -0 -1 -1 -1 -1 -1 -0 0 1 1 1 0 0 0 0 0 -0 -0 -0 -0 -0 0 0 0 0 1 0 0 0 -0 -0 1 0 0 1 1 0 0 0 0 0 1 1 1 1 0 0 0
0 -0 -0 -0 -0 -0 -1 -1 -1 -0 0 1 1 1 1 0 -0 -0 -0 -0 0 1 1 1 0 -0 0 1 1 0 0 0 0 0 0 -0 -0 1 4 3 2 1 2 2 2 2 2 1 0 -1 -1 -1 -1 -1 -1 -1 -1 -1 -1 -1 -1 -1 -0 0 1 1 1 1 1 1 0 0 0 -0 -0 -0 0 0 0 1 1 1 0 0 0 0 0 1 1 1 0 -0 -0 0 1 1 1 1 1 0 0 0 -0
-0 -0 -0 -0 -0 -0 -1 -1 -1 -0 0 1 1 0 0 -0 -0 -0 0 -0 0 1 1 1 1 0 0 1 1 1 1 1 1 1 1 0 -0 0 2 1 0 1 1 1 1 2 3 2 0 -0 -1 -1 -1 -1 -1 -1 -1 -1 -1 -1 -1 -0 -0 1 1 1 1 1 1 1 1 1 0 0 0 0 0 1 1 1 1 1 1 0 0 0 -0 -0 0 1 1 0 0 0 0 0 0 1 1 0 0 -0 -0
0 -0 -0 -0 -0 -0 -1 -1 -0 0 1 1 1 1 0 -0 -0 -0 -0 -0 -0 0 0 1 1 1 1 0 0 0 1 1 1 1 1 1 1 1 1 1 0 -0 0 -0 0 1 2 1 0 -0 -1 -1 -1 -0 -1 -1 -1 -1 -1 -0 0 0 0 1 1 1 1 1 1 1 1 1 1 1 1 1 1 1 1 1 1 1 1 1 1 0 -0 -1 -1 0 1 1 1 0 0 -0 0 0 1 0 0 -0 -0
0 -0 -0 -0 -0 -0 -1 -0 0 1 1 1 1 1 1 0 -0 -0 -1 -1 -1 -0 0 1 1 1 1 0 0 0 1 2 1 1 0 1 1 1 0 0 -0 -0 -1 -1 -0 1 1 0 0 0 -0 -0 -0 -0 -1 -0 -1 -1 -1 0 0 0 0 -0 -0 -0 -0 0 0 0 0 1 1 1 1 1 1 1 1 1 1 1 1 1 1 0 0 -1 -1 -0 0 0 0 1 1 0 0 -0 -0 0 0 0 0
0 0 -0 -0 -0 -0 -0 0 1 1 1 1 1 2 2 1 0 -0 -1 -1 -1 -1 -0 -0 -0 -0 0 -0 -0 0 1 1 1 0 0 1 1 0 -0 -0 -0 -0 -1 -1 -0 0 0 -0 -0 0 0 0 0 -0 -0 -0 -1 -1 -0 1 0 -0 -1 -1 -1 -1 -1 -1 -0 -0 -0 0 1 1 1 1 1 1 1 1 1 1 1 1 1 1 0 -0 -0 -0 -0 -0 -0 0 0 1 0 -0 -1 -0 -0 -0 0
-0 -0 -0 -1 -1 -0 0 0 0 0 1 1 1 2 2 2 1 -0 -1 -1 -1 -1 -1 -0 -0 -1 -1 -0 -0 -0 0 1 1 0 0 1 0 -0 -1 -0 -0 -0 -1 -1 -0 -1 -1 -1 -0 -0 0 0 0 0 1 -0 -1 -1 0 1 0 -1 -1 -1 -2 -2 -1 -1 -0 -0 -0 0 1 1 1 1 1 1 1 1 1 1 1 1 1 1 0 0 0 -0 -0 -0 -0 -0 -0 -0 0 0 -0 1 1 0 -0
-0 -1 -1 -1 -1 -0 0 -0 -0 0 0 0 0 1 1 2 1 0 -1 -1 -1 -1 -1 -0 -0 -1 -1 -1 -1 -1 -1 -0 0 -0 -0 -0 -0 -1 -1 -0 -0 -1 -1 -1 -1 -1 -1 -1 -1 -1 -1 -1 1 1 1 -1 -1 -0 0 1 0 -0 -0 -1 -1 -1 -1 -0 0 1 1 1 1 1 2 2 2 1 1 1 1 1 1 1 1 0 0 0 0 0 -0 -0 -1 -1 -1 -1 -1 -0 -1 0 2 3 2
-1 -1 -1 -1 -0 0 0 -1 -0 -0 -0 -0 -0 -0 0 1 1 1 0 -1 -1 -2 -1 -0 -0 -0 -1 -1 -1 -1 -1 -1 -1 -0 -1 -1 -1 -1 -1 -1 -1 -1 -2 -1 -1 -1 -1 -1 -2 -2 -2 -1 1 2 1 -0 -1 -0 0 1 1 0 0 -0 -0 -1 -1 -0 0 1 2 1 1 1 1 2 2 2 2 2 1 0 0 -0 -0 -0 -0 0 0 0 -0 -0 -1 -1 -2 -1 -1 -1 -1 -0 2 4 5
-1 -1 -1 -1 -0 -0 -0 -0 -1 -1 -1 -1 -1 -1 -0 -0 0 1 0 0 -1 -2 -2 -1 -1 -0 -0 -1 -1 -1 -1 -1 -1 -1 -1 -2 -2 -1 -1 -1 -1 -1 -2 -1 -1 -1 -1 -1 -2 -3 -3 -0 1 1 1 0 -0 -1 -0 0 0 1 1 -0 -0 -0 -1 -0 0 1 2 1 1 0 1 1 1 2 2 1 0 -0 -1 -1 -1 -1 -1 -0 0 0 -0 -1 -1 -1 -0 -0 -1 -1 -0 0 2 4 4
-1 -1 -1 -1 -0 -0 -0 -0 -1 -1 -1 -1 -0 -0 -1 -1 -0 0 0 1 0 -1 -2 -2 -1 -0 0 -0 -1 -1 -1 -1 -1 -1 -1 -1 -1 -1 -1 -1 -1 -1 -1 -1 -1 -1 -1 -1 -2 -2 -2 -0 0 1 1 0 -0 -1 -1 -1 -0 0 0 -0 -1 -1 -1 -1 -1 -0 1 1 0 0 -0 0 0 1 1 0 -0 -1 -1 -1 -1 -1 -1 -0 -0 0 -0 -0 1 3 6 4 3 1 1 1 2 3 3
-1 -1 -1 -1 -0 -0 -0 -0 -0 -1 -1 -0 0 0 -1 -1 -1 -0 0 1 0 -0 -2 -2 -1 -0 0 -0 -1 -1 -1 -1 -1 -1 -1 -1 -1 -1 -1 -0 -0 0 -0 -0 -1 -1 -1 -1 -1 -1 -1 -0 0 1 1 0 -0 -1 -1 -1 -1 -0 -0 -1 -1 -1 -2 -1 -1 -0 -0 -0 -0 -0 -0 -0 -0 0 1 0 -0 -1 -1 -1 -1 -1 -1 -0 0 0 -0 -1 -0 3 7 7 6 3 2 2 3 4 4
-1 -1 -2 -1 -1 -0 -0 -0 -0 -0 -0 0 0 -0 -1 -1 -1 -0 0 -0 -0 -1 -1 -2 -1 -1 0 -0 -1 -1 -2 -1 -1 -1 -1 -1 -1 -0 -0 -0 0 1 1 0 0 0 -1 -1 -0 -0 -1 -0 0 1 1 0 -0 -1 -1 -1 -1 -0 -0 -0 -1 -1 -2 -1 -1 -0 -0 -1 -1 -1 -0 0 1 1 2 2 1 0 -1 -1 -1 -1 -1 0 0 0 -1 -2 -2 -2 1 3 3 3 2 1 2 3 4
-1 -1 -2 -1 -1 -1 -1 -0 -0 -0 0 -0 -1 -1 -1 -1 -0 -0 -0 -1 -1 -1 -1 -1 -1 -1 -0 -0 -1 -1 -2 -1 -1 -1 -1 -1 -0 0 -0 -0 0 1 2 1 1 1 0 0 0 0 0 0 0 1 0 0 -0 -0 -0 -1 -0 0 0 -0 -0 -1 -2 -1 -0 0 -0 -1 -1 -1 -1 0 2 3 4 4 3 2 0 -1 -1 -1 -1 0 0 -0 -1 -2 -3 -3 -3 -3 -2 -1 -1 -1 -0 1 2
-1 -1 -1 -1 -1 -1 -1 -1 -1 -0 -0 -1 -1 -1 -1 -1 -1 -1 -1 -1 -1 -2 -1 -0 -0 -1 -1 -1 -1 -1 -1 -1 -1 -1 -1 -1 -1 -0 0 -0 -0 -0 1 2 2 1 1 1 0 1 1 1 1 0 -0 -0 -0 -0 -1 -0 -0 0 1 0 -0 -1 -1 0 1 1 0 -0 -1 -1 -1 -0 2 4 5 3 2 2 1 -0 -1 -1 -1 -0 0 -0 -0 -1 -2 -2 -4 -4 -3 -2 -2 -2 -1 -1 0
-0 -1 -1 -0 -1 -1 -1 -1 -1 -1 -1 -1 -1 -2 -1 -1 -1 -1 -1 -1 -2 -2 -1 -0 -0 -0 -1 -1 -1 -1 -1 -1 -1 0 0 -0 -2 -2 -1 -0 -1 -1 0 2 2 1 -0 0 1 1 2 2 1 1 -0 -0 -1 -1 -1 -1 -0 -0 0 -0 -0 -0 1 1 1 1 1 -0 -1 -1 -1 -1 1 3 3 2 2 1 1 -0 -1 -1 -0 0 -0 -0 -1 3 8 11 9 5 3 1 -0 -1 -1 -1 -1
0 -0 0 0 -0 -0 -1 -1 -1 -1 -2 -2 -2 -1 -1 -1 -2 -2 -1 -2 -2 -1 -1 -1 -0 0 -0 -2 -1 -1 0 -0 1 1 0 -1 -1 -2 -3 -2 -1 -0 -0 0 0 0 -1 0 1 2 2 1 1 1 0 -0 -1 -1 -1 -1 -0 -1 -1 -1 -1 -0 0 1 1 2 1 -0 -1 -1 -1 -1 0 1 2 1 1 1 0 -0 -1 -1 -0 0 0 0 -1 0 8 17 23 21 16 11 4 1 0 0 1
0 1 1 0 0 -0 -1 -0 -1 -1 -1 -2 -2 -1 -1 -2 -2 -2 -2 -2 -2 -1 -1 -1 -1 -0 1 -1 -1 -1 1 0 2 2 -0 -2 -1 -0 -2 -2 -1 -0 -1 -1 -1 -1 1 1 1 1 1 0 1 1 0 -0 -0 -0 -0 -0 -0 -1 -1 -0 -0 -0 1 0 1 1 1 -0 -1 -1 -1 -1 0 1 1 1 1 1 0 -0 -1 -1 -1 -0 0 0 -1 -1 -0 2 7 11 12 10 4 1 1 3 3
1 1 1 1 0 -0 -0 -0 -0 -1 -1 -1 -2 -2 -2 -2 -2 -3 -2 -2 -2 -2 -1 -1 -1 -1 0 1 -0 -1 0 1 1 2 1 -2 -2 -1 -1 0 -1 -2 -1 -2 -3 -2 4 1 0 -0 -0 -1 -0 0 0 1 1 0 -0 -0 -0 -0 0 2 1 -0 0 -0 -0 0 -0 -0 -0 -1 -1 -1 0 1 1 1 0 0 0 -0 -0 -1 -1 -0 -0 -0 0 0 -0 -1 -2 -2 -1 -1 -1 -1 0 2 3
0 0 0 0 -0 -1 -0 -1 -1 -1 -0 -2 -2 -3 -2 -2 -2 -2 -2 -2 -2 -1 -1 -1 -0 -0 -1 1 1 -0 -2 0 1 1 1 -0 -2 -2 -1 2 0 -3 -1 -1 -3 -3 4 3 -0 -2 -1 -1 -1 -1 1 2 1 0 -0 -0 -0 0 1 1 1 1 -0 -0 -0 -1 -1 -0 0 0 0 -0 -0 0 2 1 0 -0 -1 -0 0 1 0 -0 -1 -1 -0 0 0 0 -1 -2 -3 -3 -3 -2 -2 -1 0
-0 -0 0 -1 -1 -1 -1 -2 -1 -1 -1 -2 -3 -3 -3 -3 -3 -2 -2 -2 -2 -1 -1 -1 -0 1 -1 -0 0 -0 -3 -1 0 0 0 0 0 -0 -3 -1 -1 -1 -1 2 0 -2 -2 2 -0 -4 -3 2 1 -1 -1 1 1 -0 1 0 0 0 1 1 1 1 1 0 0 -0 -0 0 1 1 1 -1 -0 2 5 2 1 1 0 2 3 3 1 -0 -1 -2 -2 -1 -1 -1 -1 -2 -2 -3 -2 -3 -3 -2 1
-1 -1 -1 -1 -1 -1 -2 -2 -2 -2 -3 -2 -2 -3 -3 -3 -3 -2 -2 -2 -2 -2 -1 -1 -1 0 -0 -1 -2 -2 -2 -2 -1 0 -1 -1 1 2 -2 -2 -1 0 -0 2 1 -1 -4 -2 -1 -2 -3 2 3 2 -1 -0 -0 0 1 2 1 1 0 0 0 0 0 0 1 1 1 1 1 1 1 0 4 7 6 2 1 2 2 3 4 3 1 -1 -2 -3 -3 -2 -1 -1 -2 -2 -1 -0 -1 -2 -1 2 5
-2 -1 -1 -1 -1 -2 -2 -2 -2 -2 -2 -2 -2 -2 -2 -2 -2 -2 -2 -2 -2 -2 -1 -1 -2 -1 -0 -1 -3 -3 -2 -2 -1 -0 0 -1 0 2 2 1 0 -1 -0 -1 -1 -2 -3 -2 2 2 -4 -1 2 3 1 1 0 1 1 2 2 1 -0 0 1 1 1 1 1 2 1 1 1 1 0 1 5 7 3 0 -0 -0 -0 0 1 1 1 -0 -2 -3 -3 -2 -1 -1 -2 0 5 10 11 11 11 11 9
-2 -1 -1 -1 -1 -1 -2 -2 -2 -2 -2 -2 -2 -2 -2 -2 -2 -2 -2 -2 -2 -2 -1 -1 -2 -2 -2 -1 -2 -3 -2 -3 -3 -2 0 -0 0 2 3 2 0 -1 -0 -3 -2 -1 -3 3 6 3 -8 -3 0 2 3 2 2 2 2 1 1 0 -0 0 1 2 2 2 2 2 1 2 1 1 -0 1 2 2 2 -0 -1 -2 -2 -2 -2 -1 0 0 -1 -2 -3 -2 -2 -1 -1 -2 1 7 12 14 13 11 7
-1 -1 -1 -2 -2 -2 -2 -2 -2 -2 -2 -2 -2 -2 -2 -2 -2 -2 -2 -2 -2 -2 -1 -1 -2 -2 -3 -2 -2 -2 -3 -3 -4 -3 -1 1 1 0 1 -0 -0 -0 -0 -2 0 1 -1 3 3 0 -3 -4 -3 0 7 3 2 2 2 1 0 -0 -0 0 1 2 3 3 3 2 2 1 1 1 0 0 0 0 0 -1 -2 -2 -3 -3 -2 -2 -1 0 -0 -1 -2 -2 -2 -1 -1 -2 -2 -2 -1 -0 -0 -0 0
-2 -2 -2 -2 -2 -2 -2 -2 -2 -2 -2 -2 -2 -2 -2 -2 -2 -2 -1 -1 -2 -2 -1 -1 -1 -2 -2 -3 -2 -2 -3 -3 -3 -2 -2 -1 -1 -1 1 -1 0 1 -0 1 1 2 2 0 -2 -2 3 -2 -3 -2 4 4 4 3 1 0 0 -0 0 1 1 1 2 2 3 2 2 1 1 1 0 0 0 0 -0 -1 -2 -2 -3 -3 -3 -3 -2 -1 -1 -1 -1 -2 -2 -2 -2 -2 -3 -3 -3 -4 -4 -3 -3
-2 -2 -2 -3 -2 -2 -2 -2 -2 -2 -2 -2 -2 -2 -2 -2 -2 -1 -0 -1 -1 -1 -1 -1 -1 -2 -3 -3 -3 -2 -3 -2 -2 -2 -1 -3 -4 -3 1 -1 -2 -0 1 1 1 1 2 -1 -1 -1 -0 -2 -1 -0 -0 2 4 4 2 1 0 0 1 2 2 1 0 0 2 2 2 1 1 1 1 1 0 0 -1 -1 -1 -2 -2 -3 -3 -3 -3 -3 -2 -2 -2 -2 -3 -3 -3 -3 -3 -2 -2 -2 -2 -2 -1
-2 -2 -2 -3 -2 -2 -2 -2 -2 -2 -2 -2 -2 -2 -2 -2 -1 -1 0 -1 -1 -0 -0 0 -0 -1 -3 -3 -3 -3 -2 -0 -1 -2 -0 -2 -5 -5 -1 -2 -3 -2 -0 -0 -0 0 -0 -2 -1 -0 -2 -2 -1 1 1 3 4 3 1 2 2 2 3 3 2 0 -1 -1 0 1 2 1 1 1 1 1 0 -0 -1 -1 -1 -1 -1 -2 -3 -3 -4 -4 -4 -3 -4 -4 -4 -4 -4 -3 -2 -0 0 0 1 1 1
Height
5868 5868 5869 5870 5870 5871 5872 5872 5873 5873 5874 5874 5875 5876 5876 5877 5877 5877 5878 5878 5878 5878 5879 5879 5879 5879 5879 5879 5880 5880 5880 5881 5881 5881 5881 5881 5881 5882 5882 5882 5883 5883 5883 5883 5883 5883 5883 5883 5883 5883 5883 5883 5883 5883 5883 5883 5883 5883 5883 5883 5883 5883 5883 5883 5883 5883 5883 5884 5884 5884 5884 5884 5884 5884 5885 5885 5885 5885 5885 5885 5886 5886 5886 5886 5886 5886 5886 5885 5885 5885 5885 5885 5885 5884 5884 5884 5883 5883 5883 5883 5882 5882 5882
5866 5867 5868 5869 5869 5870 5870 5871 5872 5872 5873 5873 5874 5875 5875 5875 5876 5876 5877 5877 5877 5878 5878 5878 5878 5878 5878 5879 5879 5879 5880 5880 5880 5881 5881 5881 5881 5881 5881 5882 5882 5882 5883 5883 5883 5883 5883 5883 5883 5883 5883 5883 5883 5883 5883 5883 5883 5883 5883 5882 5883 5883 5883 5883 5883 5883 5883 5883 5883 5883 5883 5884 5884 5884 5884 5884 5884 5885 5885 5885 5885 5885 5885 5885 5885 5885 5885 5885 5885 5885 5885 5884 5884 5884 5884 5883 5883 5883 5883 5882 5882 5882 5881
5865 5866 5867 5868 5868 5869 5869 5870 5870 5871 5872 5873 5873 5874 5874 5874 5875 5875 5875 5876 5876 5877 5877 5877 5877 5878 5878 5878 5878 5878 5879 5879 5880 5880 5880 5880 5880 5880 5881 5881 5881 5882 5882 5882 5882 5882 5882 5883 5883 5883 5883 5882 5882 5882 5882 5882 5882 5883 5883 5882 5882 5883 5883 5883 5883 5883 5883 5883 5883 5883 5883 5883 5883 5883 5884 5884 5884 5884 5884 5884 5884 5884 5884 5884 5884 5884 5884 5884 5884 5884 5884 5884 5884 5883 5883 5883 5883 5882 5882 5882 5881 5881 5881
5864 5865 5865 5866 5867 5868 5868 5869 5869 5870 5871 5871 5872 5873 5873 5873 5874 5874 5874 5875 5875 5875 5876 5876 5876 5877 5877 5877 5877 5878 5878 5878 5879 5879 5879 5880 5880 5880 5880 5880 5881 5881 5881 5881 5882 5882 5882 5882 5882 5882 5882 5882 5882 5882 5882 5882 5882 5882 5882 5882 5882 5882 5882 5882 5882 5882 5882 5882 5882 5882 5883 5883 5883 5883 5883 5883 5883 5883 5883 5884 5884 5884 5884 5884 5884 5884 5884 5884 5884 5883 5883 5883 5883 5883 5883 5883 5882 5882 5881 5881 5881 5881 5880
5863 5863 5864 5865 5866 5866 5867 5868 5868 5869 5869 5870 5871 5872 5872 5873 5873 5873 5873 5874 5874 5874 5875 5875 5875 5875 5876 5876 5876 5877 5877 5878 5878 5878 5879 5879 5879 5879 5879 5880 5880 5880 5880 5881 5881 5881 5881 5881 5881 5881 5881 5881 5881 5881 5881 5881 5881 5881 5881 5882 5882 5881 5881 5881 5881 5881 5881 5882 5882 5882 5882 5882 5882 5883 5883 5883 5883 5883 5883 5883 5883 5883 5883 5883 5883 5883 5883 5883 5883 5883 5883 5883 5883 5882 5882 5882 5882 5881 5881 5881 5880 5880 5880
5861 5862 5863 5863 5864 5865 5866 5866 5867 5868 5868 5869 5870 5870 5871 5872 5872 5873 5872 5873 5873 5873 5874 5874 5874 5874 5874 5875 5875 5876 5876 5876 5877 5878 5878 5878 5878 5878 5879 5879 5879 5879 5879 5880 5880 5880 5880 5881 5881 5881 5881 5881 5881 5881 5881 5881 5881 5881 5881 5881 5881 5881 5881 5881 5881 5881 5881 5881 5881 5881 5881 5881 5882 5882 5882 5882 5882 5882 5882 5883 5883 5883 5883 5883 5883 5883 5883 5883 5883 5882 5882 5882 5882 5882 5882 5881 5881 5881 5880 5880 5880 5879 5879
5860 5861 5862 5862 5863 5863 5864 5865 5866 5866 5867 5868 5868 5869 5870 5871 5871 5872 5871 5872 5872 5873 5873 5873 5873 5873 5873 5874 5874 5874 5875 5875 5876 5876 5877 5877 5878 5878 5878 5878 5878 5878 5878 5879 5879 5879 5880 5880 5880 5880 5880 5880 5880 5880 5880 5880 5880 5880 5880 5880 5880 5880 5880 5880 5880 5880 5880 5880 5880 5881 5881 5881 5881 5881 5881 5881 5882 5882 5882 5882 5882 5882 5882 5882 5882 5882 5882 5882 5882 5882 5882 5881 5881 5881 5881 5881 5880 5880 5880 5879 5879 5878 5878
5859 5859 5860 5861 5861 5862 5863 5863 5864 5865 5866 5866 5867 5868 5869 5869 5870 5870 5870 5871 5871 5871 5872 5872 5872 5872 5872 5873 5873 5873 5874 5874 5875 5875 5876 5876 5877 5877 5877 5877 5878 5878 5878 5878 5878 5878 5878 5879 5879 5879 5879 5879 5879 5879 5879 5879 5879 5879 5879 5879 5879 5879 5879 5879 5879 5879 5880 5880 5880 5880 5880 5880 5880 5880 5880 5881 5881 5881 5881 5881 5881 5881 5881 5881 5881 5881 5881 5881 5881 5881 5881 5881 5881 5880 5880 5880 5880 5879 5879 5879 5878 5878 5878
5858 5858 5859 5859 5860 5861 5861 5862 5863 5863 5864 5865 5866 5867 5868 5868 5868 5869 5869 5869 5870 5870 5870 5871 5871 5871 5871 5872 5872 5872 5873 5873 5873 5874 5874 5875 5875 5876 5876 5876 5877 5877 5877 5877 5877 5878 5878 5878 5878 5878 5878 5878 5879 5879 5879 5879 5879 5879 5878 5879 5879 5879 5879 5879 5879 5879 5879 5879 5879 5879 5879 5879 5879 5880 5880 5880 5880 5880 5880 5880 5880 5880 5880 5880 5880 5880 5880 5880 5880 5880 5880 5880 5880 5880 5879 5879 5879 5879 5878 5878 5878 5877 5877
5856 5857 5857 5858 5858 5859 5860 5861 5862 5862 5863 5864 5865 5866 5867 5867 5867 5868 5868 5868 5868 5869 5869 5869 5870 5870 5870 5870 5871 5871 5871 5872 5872 5873 5873 5874 5874 5875 5875 5875 5876 5876 5876 5876 5877 5877 5877 5877 5877 5877 5878 5878 5878 5878 5878 5878 5878 5878 5878 5878 5878 5878 5878 5878 5878 5878 5878 5878 5878 5878 5878 5879 5879 5879 5879 5879 5879 5879 5879 5879 5879 5879 5879 5879 5879 5879 5879 5879 5879 5879 5879 5879 5879 5879 5879 5878 5878 5878 5878 5877 5877 5877 5876
5854 5855 5856 5857 5857 5858 5858 5859 5860 5861 5862 5862 5863 5864 5865 5866 5866 5867 5867 5867 5867 5868 5868 5868 5868 5869 5869 5869 5869 5870 5870 5871 5871 5872 5872 5873 5873 5873 5874 5874 5875 5875 5875 5876 5876 5876 5876 5876 5876 5876 5877 5877 5877 5877 5877 5877 5877 5877 5877 5877 5877 5877 5877 5877 5877 5877 5877 5877 5878 5878 5878 5878 5878 5878 5878 5878 5878 5878 5878 5878 5878 5878 5878 5878 5878 5878 5878 5878 5878 5878 5878 5878 5878 5878 5878 5878 5877 5877 5877 5877 5876 5876 5875
5853 5853 5854 5855 5856 5856 5857 5858 5858 5859 5860 5861 5862 5863 5863 5865 5865 5865 5866 5866 5866 5866 5867 5867 5867 5868 5868 5868 5868 5868 5869 5869 5870 5870 5871 5871 5872 5872 5873 5873 5873 5874 5874 5875 5875 5875 5875 5875 5876 5876 5876 5876 5876 5876 5876 5876 5876 5876 5876 5876 5876 5876 5876 5876 5876 5876 5876 5876 5877 5877 5877 5877 5877 5877 5877 5877 5877 5877 5877 5878 5878 5878 5878 5878 5878 5878 5878 5878 5878 5878 5877 5877 5877 5877 5877 5877 5876 5876 5876 5876 5875 5875 5874
5851 5852 5853 5853 5854 5855 5856 5856 5857 5858 5858 5859 5860 5861 5862 5864 5864 5863 5864 5865 5865 5865 5866 5866 5866 5866 5867 5867 5867 5868 5868 5868 5868 5869 5869 5870 5870 5871 5871 5872 5872 5873 5873 5873 5874 5874 5874 5875 5875 5875 5875 5875 5875 5875 5875 5875 5875 5875 5875 5875 5875 5875 5875 5875 5875 5875 5875 5875 5875 5876 5876 5876 5876 5876 5876 5876 5876 5876 5876 5876 5876 5876 5876 5877 5877 5877 5876 5876 5876 5876 5876 5876 5876 5876 5876 5876 5875 5875 5875 5875 5874 5874 5874
5850 5851 5851 5852 5853 5853 5854 5855 5855 5856 5857 5858 5858 5859 5860 5862 5862 5862 5864 5863 5863 5864 5864 5865 5865 5865 5865 5866 5866 5866 5867 5867 5867 5868 5868 5868 5869 5869 5870 5870 5871 5871 5872 5872 5873 5873 5873 5874 5874 5874 5874 5874 5874 5874 5874 5874 5874 5874 5874 5874 5874 5874 5874 5874 5874 5874 5874 5874 5874 5874 5874 5875 5875 5875 5875 5875 5875 5875 5875 5875 5875 5875 5875 5875 5875 5875 5875 5875 5875 5875 5875 5875 5875 5875 5875 5874 5874 5874 5874 5874 5873 5873 5873
5848 5849 5850 5850 5851 5852 5853 5853 5854 5854 5855 5856 5856 5857 5858 5860 5861 5861 5862 5862 5862 5863 5863 5863 5864 5864 5864 5864 5865 5865 5865 5866 5866 5866 5867 5867 5867 5868 5868 5869 5869 5870 5870 5871 5871 5872 5872 5873 5873 5873 5873 5873 5873 5873 5873 5873 5873 5873 5873 5873 5873 5873 5873 5873 5873 5873 5873 5873 5873 5873 5873 5873 5873 5873 5874 5874 5874 5874 5874 5874 5874 5874 5874 5874 5874 5874 5874 5874 5874 5874 5874 5874 5874 5874 5873 5873 5873 5873 5873 5873 5872 5872 5872
5846 5847 5848 5849 5849 5850 5851 5851 5852 5853 5853 5854 5855 5855 5856 5857 5858 5858 5859 5860 5861 5862 5863 5863 5863 5863 5863 5863 5863 5864 5864 5864 5865 5865 5865 5866 5866 5866 5867 5867 5868 5868 5869 5869 5870 5870 5871 5871 5871 5872 5872 5872 5872 5872 5872 5872 5872 5872 5872 5872 5872 5872 5872 5872 5872 5872 5872 5872 5872 5872 5872 5872 5873 5873 5873 5873 5873 5873 5873 5873 5873 5873 5873 5873 5873 5873 5873 5873 5873 5873 5873 5873 5873 5873 5873 5872 5872 5872 5872 5872 5871 5871 5871
5844 5845 5846 5847 5848 5848 5849 5850 5850 5851 5852 5852 5853 5853 5854 5855 5856 5857 5858 5858 5859 5860 5862 5863 5862 5861 5862 5862 5862 5863 5863 5863 5863 5864 5864 5864 5864 5865 5865 5866 5866 5867 5868 5868 5868 5869 5869 5870 5870 5870 5870 5870 5870 5871 5871 5871 5871 5871 5871 5871 5871 5871 5871 5871 5871 5871 5871 5871 5871 5871 5871 5871 5871 5871 5872 5872 5872 5872 5872 5872 5872 5872 5872 5872 5872 5872 5872 5872 5872 5872 5872 5872 5872 5871 5871 5871 5871 5871 5871 5870 5870 5870 5870
5842 5843 5844 5845 5846 5847 5847 5848 5848 5849 5850 5851 5851 5852 5853 5853 5854 5855 5855 5856 5857 5858 5859 5862 5861 5860 5860 5860 5861 5861 5862 5862 5862 5863 5863 5863 5863 5863 5864 5864 5865 5865 5866 5866 5867 5867 5868 5868 5868 5869 5869 5869 5869 5869 5869 5869 5869 5869 5870 5870 5870 5870 5870 5870 5870 5870 5870 5870 5870 5870 5870 5870 5870 5870 5870 5870 5870 5870 5870 5870 5870 5870 5871 5871 5871 5871 5871 5871 5871 5870 5870 5870 5870 5870 5870 5870 5870 5870 5869 5869 5869 5869 5868
5840 5841 5842 5843 5844 5845 5845 5846 5847 5848 5848 5849 5849 5850 5851 5851 5852 5853 5853 5854 5855 5856 5857 5858 5859 5859 5859 5859 5860 5860 5861 5861 5861 5861 5862 5862 5862 5862 5863 5863 5863 5864 5864 5865 5865 5866 5866 5867 5867 5867 5868 5868 5868 5868 5868 5868 5868 5868 5868 5868 5868 5869 5869 5869 5869 5869 5869 5869 5869 5869 5869 5869 5869 5869 5869 5869 5869 5869 5869 5869 5869 5869 5869 5869 5869 5869 5869 5869 5869 5869 5869 5869 5869 5869 5869 5869 5868 5868 5868 5868 5868 5868 5868
5838 5838 5839 5841 5842 5843 5843 5844 5845 5846 5846 5847 5848 5848 5849 5849 5850 5851 5851 5852 5853 5854 5855 5856 5857 5858 5858 5859 5859 5859 5859 5860 5860 5860 5860 5860 5861 5861 5861 5862 5862 5862 5863 5863 5864 5864 5865 5865 5865 5866 5866 5866 5866 5867 5867 5867 5867 5867 5867 5867 5867 5867 5868 5868 5868 5868 5868 5868 5868 5868 5868 5868 5868 5868 5868 5868 5868 5868 5868 5868 5868 5868 5868 5868 5868 5868 5868 5868 5868 5868 5868 5868 5868 5868 5868 5867 5867 5867 5867 5867 5867 5866 5866
5836 5836 5837 5838 5839 5840 5841 5842 5843 5843 5844 5845 5846 5846 5847 5847 5848 5848 5849 5850 5851 5852 5853 5854 5855 5856 5857 5857 5858 5858 5858 5858 5858 5859 5859 5859 5859 5860 5860 5860 5860 5861 5861 5862 5862 5863 5863 5863 5864 5864 5864 5865 5865 5865 5865 5865 5865 5865 5865 5866 5866 5866 5866 5866 5866 5866 5867 5867 5867 5867 5867 5867 5867 5867 5867 5867 5867 5867 5867 5867 5867 5867 5867 5867 5867 5867 5867 5867 5867 5867 5867 5866 5866 5866 5866 5866 5866 5866 5866 5865 5865 5865 5865
5833 5834 5835 5836 5837 5838 5839 5840 5841 5842 5842 5843 5844 5845 5845 5845 5846 5847 5847 5848 5849 5849 5850 5852 5852 5853 5854 5855 5856 5856 5857 5857 5857 5857 5858 5858 5858 5858 5859 5859 5859 5859 5859 5860 5860 5861 5861 5862 5862 5863 5863 5863 5863 5863 5864 5864 5864 5864 5864 5864 5864 5864 5864 5865 5865 5865 5865 5865 5865 5865 5865 5865 5865 5865 5865 5865 5865 5865 5865 5865 5865 5865 5865 5865 5865 5865 5865 5865 5865 5865 5865 5865 5865 5865 5865 5865 5864 5864 5864 5864 5864 5864 5864
5832 5833 5833 5834 5835 5836 5837 5838 5838 5839 5840 5841 5842 5843 5843 5843 5844 5845 5845 5846 5847 5848 5848 5849 5850 5851 5852 5853 5854 5854 5855 5855 5856 5856 5856 5856 5856 5857 5857 5857 5858 5858 5858 5858 5858 5859 5859 5860 5860 5861 5861 5862 5862 5862 5862 5862 5862 5863 5863 5863 5863 5863 5863 5863 5863 5863 5863 5864 5864 5864 5864 5864 5864 5864 5864 5864 5864 5864 5864 5864 5864 5864 5864 5864 5864 5864 5864 5864 5864 5864 5864 5863 5863 5863 5863 5863 5863 5863 5863 5863 5863 5863 5862
5830 5830 5831 5832 5833 5834 5835 5836 5837 5837 5838 5839 5840 5841 5841 5842 5842 5843 5843 5844 5845 5845 5846 5847 5848 5848 5849 5851 5852 5853 5853 5854 5854 5854 5855 5855 5855 5855 5855 5856 5856 5856 5857 5857 5857 5857 5858 5858 5858 5859 5859 5860 5860 5860 5861 5861 5861 5861 5861 5861 5861 5861 5861 5862 5862 5862 5862 5862 5862 5863 5863 5863 5863 5863 5863 5863 5863 5863 5863 5863 5863 5863 5863 5863 5863 5863 5863 5863 5863 5863 5862 5862 5862 5862 5862 5862 5862 5862 5861 5861 5861 5861 5861
5828 5829 5829 5830 5831 5832 5833 5833 5834 5835 5836 5837 5838 5838 5839 5839 5840 5841 5841 5842 5843 5843 5844 5845 5845 5846 5847 5848 5849 5850 5851 5852 5852 5853 5853 5853 5853 5853 5854 5854 5854 5855 5855 5855 5855 5856 5856 5856 5857 5857 5858 5858 5858 5859 5859 5859 5859 5859 5859 5859 5860 5860 5860 5860 5860 5860 5860 5861 5861 5861 5861 5861 5861 5861 5861 5861 5861 5861 5862 5861 5861 5861 5861 5861 5861 5861 5861 5861 5861 5861 5861 5861 5861 5861 5860 5860 5860 5860 5860 5860 5859 5859 5859
5826 5827 5828 5829 5829 5830 5831 5832 5832 5833 5833 5834 5835 5837 5837 5837 5838 5838 5839 5840 5841 5841 5842 5842 5843 5844 5845 5846 5847 5848 5848 5849 5850 5850 5851 5851 5852 5852 5852 5852 5853 5853 5853 5853 5854 5854 5854 5855 5855 5855 5856 5856 5857 5857 5857 5858 5858 5858 5858 5858 5858 5858 5858 5858 5858 5858 5858 5859 5859 5859 5859 5859 5860 5860 5860 5860 5860 5860 5860 5860 5860 5860 5860 5860 5860 5860 5860 5859 5859 5859 5859 5859 5859 5859 5859 5859 5859 5858 5858 5858 5858 5858 5858
5824 5825 5826 5827 5828 5828 5829 5829 5830 5831 5831 5833 5834 5834 5835 5835 5836 5837 5837 5838 5838 5839 5840 5840 5841 5842 5843 5843 5844 5845 5846 5847 5847 5848 5848 5849 5850 5850 5850 5850 5851 5851 5851 5852 5852 5852 5853 5853 5853 5853 5854 5854 5855 5855 5856 5856 5856 5856 5856 5856 5856 5856 5857 5857 5857 5857 5857 5857 5857 5857 5858 5858 5858 5858 5858 5858 5858 5858 5858 5858 5858 5858 5858 5858 5858 5858 5858 5858 5858 5858 5858 5858 5858 5858 5857 5857 5857 5857 5857 5857 5857 5856 5856
5823 5823 5824 5825 5825 5826 5827 5828 5828 5829 5830 5831 5831 5832 5833 5833 5834 5835 5835 5836 5836 5837 5838 5838 5839 5839 5840 5841 5842 5843 5843 5844 5845 5846 5846 5847 5848 5848 5848 5849 5849 5849 5849 5849 5850 5850 5851 5851 5851 5852 5852 5853 5853 5853 5854 5854 5854 5854 5854 5854 5855 5855 5855 5855 5855 5855 5855 5855 5855 5856 5856 5856 5856 5856 5856 5857 5857 5857 5857 5857 5857 5857 5857 5856 5856 5856 5856 5856 5856 5856 5856 5856 5856 5856 5856 5856 5855 5855 5855 5855 5855 5855 5854
5821 5821 5822 5823 5823 5824 5825 5826 5827 5828 5828 5829 5829 5830 5831 5831 5832 5833 5833 5833 5834 5835 5835 5835 5836 5837 5838 5839 5840 5840 5841 5842 5843 5843 5844 5845 5845 5846 5847 5847 5847 5847 5847 5848 5848 5848 5849 5849 5850 5850 5850 5851 5851 5851 5852 5852 5852 5853 5853 5853 5853 5853 5853 5853 5853 5853 5853 5853 5853 5854 5854 5854 5854 5854 5854 5855 5855 5855 5855 5855 5855 5855 5855 5855 5854 5855 5854 5854 5854 5854 5854 5854 5854 5854 5854 5854 5854 5853 5853 5853 5853 5853 5853
5818 5819 5820 5820 5821 5822 5823 5823 5825 5826 5826 5827 5827 5828 5828 5829 5830 5830 5831 5831 5832 5832 5833 5833 5834 5835 5835 5836 5838 5838 5838 5839 5840 5841 5841 5842 5843 5843 5844 5845 5845 5845 5846 5846 5846 5847 5847 5847 5848 5848 5848 5848 5849 5849 5850 5850 5850 5850 5851 5851 5851 5851 5851 5851 5851 5852 5852 5852 5852 5852 5852 5852 5852 5853 5853 5853 5853 5853 5853 5853 5853 5853 5853 5853 5853 5853 5853 5853 5853 5853 5853 5853 5853 5852 5852 5852 5852 5852 5852 5851 5851 5851 5851
5816 5817 5818 5818 5819 5820 5821 5822 5823 5823 5825 5825 5826 5826 5827 5827 5828 5828 5829 5829 5830 5830 5831 5832 5832 5833 5833 5834 5835 5835 5836 5836 5837 5838 5839 5839 5840 5841 5842 5842 5843 5843 5844 5844 5844 5845 5845 5845 5846 5846 5846 5847 5847 5847 5848 5848 5848 5848 5848 5849 5849 5849 5849 5849 5849 5850 5850 5850 5850 5850 5850 5850 5850 5851 5851 5851 5851 5851 5851 5851 5851 5851 5851 5851 5851 5851 5851 5851 5851 5851 5851 5851 5850 5850 5850 5850 5850 5850 5850 5850 5849 5849 5849
5814 5815 5816 5817 5817 5818 5819 5820 5821 5821 5822 5823 5824 5824 5825 5825 5826 5826 5826 5827 5828 5828 5828 5829 5830 5830 5831 5832 5833 5833 5833 5834 5835 5835 5836 5837 5838 5838 5839 5840 5841 5841 5842 5843 5843 5843 5843 5843 5843 5844 5844 5845 5845 5845 5846 5846 5846 5846 5846 5847 5847 5847 5847 5848 5848 5848 5848 5848 5848 5848 5848 5848 5848 5849 5849 5849 5849 5849 5849 5849 5849 5849 5849 5849 5849 5849 5849 5849 5849 5849 5849 5849 5849 5849 5848 5848 5848 5848 5848 5848 5848 5847 5847
5812 5813 5813 5814 5815 5816 5817 5818 5818 5819 5820 5821 5822 5822 5823 5823 5824 5824 5825 5825 5826 5826 5827 5827 5828 5828 5829 5829 5830 5831 5831 5832 5832 5833 5833 5834 5835 5836 5837 5838 5838 5839 5840 5840 5840 5841 5841 5841 5841 5842 5842 5843 5843 5843 5843 5844 5844 5844 5844 5844 5844 5845 5845 5845 5846 5846 5846 5846 5846 5846 5847 5847 5847 5847 5847 5847 5847 5847 5847 5847 5847 5847 5847 5848 5847 5847 5847 5847 5847 5847 5847 5847 5847 5847 5847 5847 5846 5846 5846 5846 5846 5845 5845
5809 5810 5811 5812 5813 5814 5815 5815 5816 5817 5818 5819 5819 5820 5820 5821 5822 5822 5823 5823 5824 5824 5825 5826 5826 5827 5827 5828 5828 5828 5829 5829 5830 5831 5831 5832 5832 5833 5835 5836 5836 5836 5837 5838 5838 5838 5838 5839 5839 5839 5840 5840 5841 5841 5841 5841 5841 5842 5842 5842 5842 5843 5843 5843 5844 5844 5844 5844 5844 5844 5844 5844 5845 5845 5845 5845 5845 5845 5845 5845 5845 5845 5845 5845 5845 5844 5845 5845 5845 5845 5845 5845 5845 5845 5845 5844 5844 5844 5844 5844 5843 5843 5843
5807 5808 5809 5810 5811 5812 5813 5813 5814 5815 5816 5817 5817 5818 5818 5818 5819 5820 5820 5821 5821 5822 5823 5823 5824 5824 5824 5825 5826 5826 5827 5827 5828 5828 5829 5829 5830 5831 5831 5832 5833 5833 5834 5834 5835 5836 5836 5837 5837 5837 5837 5838 5838 5838 5839 5839 5839 5839 5839 5839 5840 5840 5841 5841 5842 5842 5842 5842 5843 5843 5843 5843 5843 5843 5843 5843 5843 5843 5843 5843 5843 5843 5843 5843 5843 5843 5843 5843 5843 5843 5843 5843 5843 5843 5843 5842 5842 5842 5842 5842 5841 5841 5841
5805 5806 5806 5807 5808 5809 5810 5811 5812 5813 5813 5814 5815 5815 5816 5816 5817 5817 5818 5818 5819 5820 5820 5821 5821 5822 5822 5823 5823 5824 5824 5825 5825 5826 5826 5827 5827 5828 5829 5829 5830 5830 5831 5831 5832 5833 5833 5834 5834 5834 5835 5835 5836 5836 5836 5837 5837 5837 5837 5837 5838 5838 5839 5839 5840 5840 5840 5840 5840 5840 5840 5840 5840 5840 5840 5840 5840 5840 5840 5840 5840 5840 5840 5840 5840 5840 5840 5840 5840 5841 5840 5840 5840 5840 5840 5840 5840 5840 5840 5839 5839 5839 5839
5802 5803 5804 5805 5806 5807 5808 5809 5810 5811 5811 5812 5813 5813 5813 5814 5814 5815 5815 5816 5817 5818 5818 5819 5819 5819 5820 5821 5821 5822 5821 5822 5823 5823 5824 5824 5825 5825 5826 5827 5827 5827 5828 5828 5829 5830 5831 5831 5832 5832 5832 5833 5833 5833 5834 5834 5834 5834 5834 5835 5835 5836 5837 5837 5838 5838 5838 5838 5838 5838 5838 5838 5838 5838 5838 5838 5838 5838 5838 5838 5838 5838 5838 5838 5838 5838 5838 5838 5838 5838 5838 5838 5838 5838 5838 5838 5838 5838 5838 5838 5837 5837 5837
5800 5801 5802 5803 5803 5804 5805 5806 5807 5808 5809 5809 5810 5811 5811 5812 5812 5813 5813 5813 5814 5815 5815 5816 5817 5817 5818 5818 5818 5819 5820 5820 5820 5821 5821 5822 5823 5823 5823 5824 5824 5825 5825 5826 5826 5827 5828 5828 5829 5829 5830 5830 5830 5831 5831 5831 5831 5832 5832 5833 5833 5833 5834 5834 5834 5835 5835 5835 5835 5835 5835 5835 5835 5836 5836 5836 5836 5836 5836 5836 5836 5836 5836 5836 5835 5835 5835 5835 5835 5835 5835 5836 5836 5836 5836 5835 5835 5835 5835 5835 5835 5834 5834
5798 5798 5799 5800 5801 5802 5803 5804 5805 5805 5806 5807 5808 5808 5809 5809 5810 5810 5811 5811 5812 5812 5813 5813 5814 5814 5815 5815 5816 5817 5817 5818 5818 5818 5819 5819 5820 5820 5821 5821 5822 5822 5823 5823 5823 5824 5825 5825 5826 5826 5827 5827 5828 5828 5828 5828 5828 5829 5829 5830 5830 5831 5831 5831 5831 5832 5832 5832 5832 5832 5832 5832 5833 5833 5833 5833 5833 5833 5833 5833 5833 5833 5833 5833 5833 5833 5833 5833 5833 5833 5833 5833 5833 5833 5833 5833 5833 5834 5833 5832 5832 5832 5832
5795 5796 5797 5798 5798 5799 5800 5801 5802 5803 5803 5804 5805 5805 5806 5807 5808 5808 5808 5808 5809 5810 5810 5811 5811 5812 5812 5813 5813 5814 5814 5815 5816 5816 5816 5817 5817 5818 5818 5818 5819 5819 5820 5820 5821 5821 5822 5822 5823 5823 5823 5824 5824 5825 5825 5826 5826 5826 5827 5827 5828 5828 5828 5828 5828 5828 5828 5828 5829 5829 5829 5829 5830 5830 5830 5830 5830 5830 5830 5831 5831 5831 5831 5831 5831 5830 5830 5830 5830 5830 5830 5830 5830 5830 5830 5830 5831 5832 5831 5830 5829 5829 5829
5793 5793 5794 5795 5796 5797 5798 5798 5799 5800 5801 5801 5802 5803 5803 5804 5805 5805 5806 5806 5806 5807 5808 5808 5809 5809 5810 5810 5811 5811 5812 5813 5813 5813 5814 5814 5814 5815 5815 5816 5816 5817 5817 5818 5818 5818 5819 5819 5820 5820 5821 5821 5822 5822 5823 5823 5823 5824 5824 5825 5825 5825 5825 5825 5826 5826 5826 5826 5826 5826 5826 5827 5827 5827 5828 5828 5828 5828 5828 5828 5828 5828 5828 5828 5828 5828 5828 5827 5827 5827 5827 5827 5827 5827 5827 5828 5828 5828 5828 5828 5827 5827 5826
5790 5791 5792 5793 5793 5794 5795 5796 5796 5797 5798 5798 5799 5800 5801 5801 5802 5803 5803 5803 5803 5804 5805 5805 5806 5807 5807 5808 5808 5808 5809 5810 5810 5811 5811 5812 5812 5812 5813 5813 5814 5814 5814 5815 5815 5816 5816 5817 5817 5817 5818 5818 5819 5820 5820 5820 5821 5821 5822 5822 5823 5823 5823 5823 5823 5823 5823 5823 5823 5823 5824 5824 5824 5824 5824 5825 5825 5825 5825 5825 5825 5825 5825 5825 5825 5825 5824 5824 5824 5824 5824 5824 5824 5824 5824 5825 5825 5825 5825 5825 5825 5825 5824
5788 5788 5789 5790 5791 5792 5793 5793 5793 5794 5795 5796 5797 5797 5798 5798 5799 5800 5800 5801 5801 5801 5802 5803 5803 5804 5804 5805 5806 5806 5806 5807 5808 5808 5808 5809 5809 5810 5810 5811 5811 5812 5812 5813 5813 5813 5813 5814 5814 5814 5815 5816 5817 5817 5817 5818 5818 5818 5819 5819 5819 5820 5820 5820 5820 5820 5820 5820 5820 5821 5821 5821 5821 5821 5821 5821 5821 5822 5822 5822 5822 5822 5821 5821 5822 5821 5821 5821 5822 5822 5822 5822 5822 5822 5821 5821 5822 5822 5823 5823 5822 5821 5822
5786 5786 5787 5788 5789 5789 5790 5791 5791 5792 5793 5793 5794 5795 5795 5795 5796 5797 5797 5798 5798 5799 5799 5800 5800 5801 5802 5802 5803 5803 5804 5804 5805 5805 5806 5806 5807 5808 5808 5808 5809 5809 5810 5810 5810 5811 5811 5811 5811 5812 5812 5813 5813 5814 5814 5815 5815 5816 5816 5816 5817 5817 5817 5817 5817 5817 5817 5817 5817 5818 5818 5818 5818 5818 5818 5818 5818 5818 5818 5818 5818 5818 5818 5818 5818 5818 5818 5818 5818 5818 5819 5819 5819 5819 5818 5818 5818 5819 5820 5820 5819 5818 5818
5783 5784 5785 5786 5786 5787 5788 5788 5789 5789 5790 5791 5791 5792 5792 5793 5793 5794 5794 5795 5795 5796 5796 5797 5798 5798 5799 5799 5800 5801 5801 5802 5802 5803 5803 5804 5804 5805 5805 5806 5807 5807 5808 5808 5808 5808 5808 5808 5808 5809 5809 5810 5811 5811 5812 5812 5813 5813 5813 5813 5814 5814 5814 5814 5814 5814 5815 5815 5815 5815 5815 5815 5815 5815 5815 5815 5815 5815 5815 5815 5814 5815 5815 5815 5815 5815 5815 5815 5815 5816 5816 5816 5816 5816 5816 5815 5815 5816 5816 5816 5816 5816 5815
5781 5782 5783 5783 5784 5785 5785 5786 5786 5787 5787 5788 5788 5789 5790 5790 5791 5791 5792 5792 5793 5793 5794 5794 5795 5796 5796 5796 5797 5798 5798 5799 5799 5800 5801 5801 5802 5803 5803 5803 5804 5805 5805 5805 5806 5806 5806 5806 5806 5807 5807 5807 5808 5808 5809 5809 5810 5810 5811 5811 5811 5811 5811 5811 5811 5812 5812 5812 5812 5812 5812 5812 5812 5812 5812 5811 5811 5811 5811 5811 5811 5811 5811 5811 5812 5812 5812 5812 5812 5812 5812 5813 5813 5813 5813 5813 5813 5813 5813 5813 5813 5813 5813
5778 5779 5780 5781 5781 5782 5783 5783 5784 5784 5785 5785 5786 5786 5787 5788 5788 5788 5789 5789 5790 5791 5791 5792 5792 5793 5793 5794 5794 5795 5795 5796 5797 5797 5798 5798 5799 5800 5800 5801 5802 5802 5803 5803 5803 5803 5804 5804 5804 5805 5805 5805 5805 5806 5806 5807 5807 5808 5808 5808 5808 5808 5808 5808 5809 5809 5809 5809 5809 5809 5809 5809 5809 5808 5808 5808 5808 5808 5808 5808 5808 5808 5808 5808 5808 5808 5808 5808 5809 5809 5809 5809 5809 5809 5809 5809 5809 5809 5809 5810 5810 5811 5810
5776 5777 5778 5778 5779 5779 5780 5781 5781 5782 5782 5783 5783 5784 5784 5785 5785 5786 5786 5787 5787 5788 5788 5789 5790 5790 5791 5791 5792 5792 5793 5793 5794 5794 5795 5796 5796 5797 5798 5798 5798 5799 5800 5800 5801 5801 5801 5802 5802 5802 5803 5803 5803 5803 5803 5804 5804 5805 5805 5805 5806 5806 5806 5806 5806 5806 5806 5806 5806 5806 5806 5806 5806 5806 5805 5805 5805 5805 5806 5805 5805 5805 5805 5805 5805 5805 5805 5805 5806 5806 5806 5806 5806 5806 5806 5806 5806 5806 5806 5807 5807 5807 5807
5773 5774 5775 5775 5776 5777 5777 5778 5778 5779 5779 5780 5780 5781 5782 5782 5783 5783 5783 5784 5784 5785 5786 5787 5787 5788 5788 5789 5789 5789 5790 5790 5791 5792 5792 5793 5793 5794 5794 5795 5796 5796 5797 5797 5798 5798 5798 5799 5799 5800 5800 5800 5800 5801 5801 5801 5801 5802 5802 5803 5803 5803 5803 5803 5803 5803 5804 5804 5804 5804 5803 5803 5803 5803 5803 5803 5802 5803 5803 5803 5803 5802 5802 5802 5802 5802 5802 5802 5803 5803 5803 5802 5802 5802 5802 5802 5802 5802 5803 5803 5803 5803 5803
5771 5772 5772 5773 5773 5774 5774 5775 5776 5776 5777 5777 5778 5778 5779 5779 5780 5780 5781 5781 5782 5783 5783 5784 5785 5785 5786 5786 5787 5787 5788 5788 5788 5789 5789 5789 5790 5790 5791 5792 5793 5793 5794 5794 5794 5795 5795 5796 5797 5797 5798 5798 5798 5798 5798 5798 5799 5799 5799 5800 5800 5800 5800 5800 5800 5801 5801 5801 5801 5801 5800 5800 5800 5800 5800 5799 5799 5799 5799 5800 5800 5800 5799 5799 5799 5799 5799 5799 5799 5799 5799 5799 5799 5799 5799 5800 5799 5799 5799 5799 5800 5800 5799
5768 5769 5770 5770 5771 5771 5772 5773 5773 5773 5774 5774 5775 5776 5776 5777 5777 5778 5778 5779 5779 5780 5781 5782 5782 5783 5783 5783 5783 5784 5785 5785 5785 5786 5786 5786 5787 5788 5788 5788 5789 5790 5790 5791 5791 5792 5793 5793 5794 5794 5794 5794 5794 5795 5795 5796 5796 5797 5797 5797 5797 5798 5798 5798 5798 5798 5798 5798 5798 5798 5798 5797 5797 5797 5797 5797 5797 5797 5797 5797 5797 5797 5797 5797 5797 5796 5796 5796 5796 5796 5796 5796 5796 5796 5796 5796 5796 5796 5796 5796 5796 5796 5796
5766 5766 5767 5768 5768 5768 5769 5770 5770 5771 5771 5772 5772 5773 5773 5774 5774 5775 5776 5776 5777 5778 5778 5779 5779 5780 5780 5781 5781 5781 5782 5782 5783 5783 5783 5783 5783 5784 5785 5785 5786 5787 5787 5787 5788 5788 5790 5790 5790 5790 5791 5791 5792 5792 5792 5793 5793 5794 5794 5794 5795 5795 5795 5795 5795 5795 5795 5795 5795 5795 5794 5794 5794 5794 5794 5794 5794 5794 5793 5793 5793 5793 5794 5794 5794 5793 5793 5793 5793 5793 5793 5793 5792 5792 5792 5792 5792 5793 5793 5793 5793 5793 5793
5763 5763 5764 5765 5765 5766 5766 5767 5768 5768 5768 5769 5770 5770 5771 5772 5772 5773 5773 5774 5774 5775 5775 5776 5777 5777 5778 5778 5778 5778 5778 5779 5779 5780 5780 5780 5780 5781 5782 5783 5783 5783 5784 5785 5785 5785 5787 5787 5787 5787 5788 5788 5788 5789 5789 5790 5790 5791 5791 5791 5792 5792 5793 5793 5793 5792 5792 5792 5792 5792 5791 5791 5791 5791 5791 5791 5791 5791 5791 5790 5790 5790 5791 5791 5791 5791 5791 5791 5790 5790 5789 5789 5788 5788 5788 5788 5789 5790 5790 5790 5790 5789 5789
5760 5761 5761 5762 5762 5763 5763 5764 5765 5765 5766 5766 5767 5768 5768 5769 5769 5770 5771 5771 5772 5772 5773 5773 5773 5774 5774 5774 5775 5775 5775 5776 5776 5777 5777 5777 5778 5778 5778 5779 5780 5780 5780 5782 5782 5782 5783 5783 5783 5783 5785 5786 5786 5786 5787 5787 5787 5788 5788 5788 5788 5789 5789 5789 5789 5789 5789 5789 5789 5789 5788 5788 5788 5788 5788 5788 5789 5789 5788 5787 5787 5788 5788 5788 5788 5788 5788 5788 5788 5787 5787 5786 5786 5785 5785 5785 5786 5786 5786 5787 5786 5786 5786
5757 5758 5758 5759 5759 5760 5761 5761 5762 5762 5763 5763 5764 5765 5766 5766 5767 5767 5768 5768 5769 5769 5770 5770 5770 5771 5771 5771 5771 5772 5772 5773 5773 5773 5774 5774 5775 5775 5775 5776 5776 5777 5777 5778 5778 5779 5779 5780 5780 5780 5781 5782 5783 5783 5783 5784 5784 5784 5785 5785 5785 5786 5786 5786 5786 5787 5787 5786 5786 5786 5786 5785 5785 5785 5785 5785 5785 5785 5785 5784 5784 5784 5784 5784 5784 5785 5785 5784 5784 5784 5784 5783 5783 5783 5782 5782 5782 5783 5783 5783 5783 5783 5783
5754 5754 5755 5756 5756 5757 5758 5758 5759 5759 5760 5761 5761 5762 5763 5763 5764 5764 5765 5765 5766 5766 5767 5767 5767 5768 5768 5768 5768 5768 5769 5770 5770 5770 5771 5771 5772 5772 5772 5773 5773 5774 5774 5775 5775 5775 5776 5776 5777 5778 5777 5778 5780 5780 5780 5781 5781 5782 5782 5782 5782 5782 5783 5783 5783 5783 5783 5783 5783 5783 5783 5782 5782 5782 5782 5782 5782 5782 5781 5781 5781 5781 5781 5781 5781 5781 5781 5781 5781 5781 5781 5781 5781 5780 5780 5779 5780 5781 5781 5781 5781 5781 5781
5751 5752 5752 5753 5753 5754 5755 5755 5756 5756 5757 5758 5758 5759 5760 5760 5761 5762 5762 5763 5763 5763 5764 5764 5764 5764 5764 5765 5765 5765 5766 5766 5767 5767 5768 5768 5768 5769 5769 5769 5770 5770 5771 5771 5772 5772 5772 5773 5774 5774 5773 5774 5776 5777 5777 5778 5778 5778 5778 5779 5779 5779 5779 5779 5780 5780 5780 5780 5780 5780 5779 5779 5779 5778 5778 5778 5778 5778 5778 5778 5778 5778 5777 5777 5778 5778 5778 5778 5778 5778 5778 5778 5778 5778 5778 5778 5778 5778 5779 5779 5780 5780 5780
5748 5748 5749 5749 5750 5751 5752 5752 5753 5753 5754 5755 5755 5756 5757 5757 5758 5758 5759 5760 5760 5760 5760 5761 5761 5761 5761 5762 5762 5763 5763 5763 5763 5764 5764 5764 5765 5765 5766 5766 5766 5767 5768 5768 5768 5769 5769 5770 5770 5770 5770 5771 5773 5773 5774 5774 5775 5775 5775 5775 5775 5775 5775 5776 5776 5776 5776 5776 5776 5776 5776 5776 5775 5775 5775 5775 5774 5774 5774 5774 5774 5774 5774 5774 5774 5774 5774 5774 5775 5775 5775 5775 5775 5775 5775 5775 5775 5775 5776 5776 5776 5776 5776
5744 5745 5746 5746 5747 5748 5748 5749 5750 5750 5751 5752 5752 5753 5753 5754 5755 5755 5756 5756 5757 5757 5758 5758 5758 5758 5758 5758 5759 5760 5759 5760 5760 5760 5761 5761 5761 5761 5762 5763 5763 5764 5764 5765 5765 5765 5765 5766 5766 5766 5767 5768 5769 5769 5771 5771 5771 5771 5772 5772 5772 5772 5772 5772 5772 5772 5772 5772 5772 5772 5772 5772 5772 5771 5771 5771 5771 5771 5770 5771 5770 5770 5770 5770 5770 5770 5770 5771 5771 5772 5772 5772 5772 5772 5772 5772 5772 5772 5773 5773 5773 5772 5772
5741 5742 5742 5743 5744 5744 5745 5746 5746 5747 5748 5748 5749 5750 5750 5751 5752 5752 5753 5753 5753 5754 5754 5754 5754 5754 5754 5755 5756 5756 5756 5757 5757 5757 5758 5758 5757 5758 5758 5759 5760 5760 5761 5761 5762 5762 5762 5762 5762 5763 5764 5764 5765 5767 5768 5768 5768 5768 5768 5768 5768 5768 5769 5769 5768 5768 5768 5768 5768 5768 5768 5768 5768 5768 5767 5767 5767 5767 5767 5767 5767 5767 5767 5767 5767 5767 5766 5767 5767 5768 5768 5769 5769 5769 5769 5769 5769 5769 5769 5769 5769 5769 5769
5738 5738 5739 5740 5740 5741 5742 5742 5743 5743 5744 5745 5746 5746 5747 5748 5748 5749 5749 5750 5750 5750 5751 5751 5751 5751 5751 5752 5752 5753 5753 5753 5754 5754 5754 5754 5753 5754 5755 5756 5756 5756 5757 5758 5758 5758 5758 5758 5758 5759 5760 5760 5762 5763 5764 5764 5764 5764 5764 5764 5765 5765 5765 5765 5764 5764 5763 5763 5763 5764 5763 5763 5763 5763 5763 5763 5763 5763 5763 5763 5763 5763 5763 5763 5763 5763 5763 5763 5763 5764 5764 5765 5766 5766 5766 5766 5766 5766 5765 5765 5765 5765 5765